Temp
-14 -14 -14 -14 -14 -14 -14 -14 -15 -15 -15 -15 -15 -15 -15 -15 -15 -15 -15 -15 -15 -15 -15 -16 -15 -15 -15 -15 -15 -16 -16 -17
-14 -14 -14 -14 -14 -14 -15 -15 -15 -15 -15 -15 -15 -16 -16 -16 -16 -16 -15 -15 -15 -15 -15 -15 -15 -15 -16 -17 -17 -17 -17 -17
-14 -14 -15 -15 -15 -15 -15 -15 -15 -16 -16 -16 -16 -16 -16 -16 -16 -16 -16 -16 -15 -15 -15 -16 -16 -16 -17 -18 -18 -18 -18 -19
-15 -15 -15 -15 -15 -15 -16 -16 -16 -16 -16 -16 -16 -15 -15 -15 -15 -15 -16 -16 -16 -17 -17 -18 -18 -18 -18 -18 -19 -19 -18 -19
-15 -15 -15 -15 -15 -16 -16 -16 -16 -16 -16 -16 -15 -15 -16 -16 -16 -16 -17 -17 -18 -18 -18 -18 -18 -18 -19 -20 -20 -20 -20 -20
-15 -15 -15 -15 -15 -15 -16 -16 -15 -15 -15 -16 -16 -16 -16 -17 -17 -17 -18 -18 -18 -19 -19 -19 -19 -20 -20 -20 -20 -21 -21 -21
-15 -15 -15 -15 -16 -16 -16 -16 -16 -16 -16 -16 -16 -17 -17 -18 -18 -18 -19 -19 -20 -20 -20 -20 -20 -21 -21 -21 -21 -22 -22 -22
-16 -16 -16 -16 -16 -16 -16 -16 -16 -16 -16 -17 -17 -18 -18 -18 -19 -19 -20 -20 -20 -20 -20 -21 -21 -21 -21 -22 -23 -22 -22 -22
-16 -16 -16 -16 -16 -16 -16 -16 -16 -17 -17 -18 -19 -19 -20 -20 -20 -20 -20 -20 -20 -21 -21 -22 -22 -22 -23 -23 -23 -23 -23 -23
-16 -16 -16 -16 -16 -16 -16 -16 -17 -18 -19 -19 -20 -19 -19 -20 -20 -21 -21 -21 -22 -22 -22 -23 -23 -23 -24 -24 -24 -24 -25 -25
-17 -16 -16 -16 -16 -16 -17 -18 -18 -18 -19 -19 -19 -20 -20 -21 -21 -21 -21 -22 -23 -23 -24 -24 -24 -25 -25 -25 -26 -27 -28 -28
-16 -16 -16 -16 -17 -17 -18 -18 -18 -19 -19 -20 -20 -20 -21 -21 -22 -22 -22 -23 -24 -24 -25 -25 -25 -26 -27 -28 -29 -30 -30 -30
-16 -16 -17 -17 -18 -18 -18 -19 -19 -19 -20 -21 -21 -21 -22 -22 -23 -24 -24 -25 -25 -25 -26 -26 -27 -28 -29 -30 -31 -31 -30 -31
-17 -17 -17 -18 -18 -18 -19 -19 -19 -20 -21 -22 -22 -22 -23 -24 -25 -25 -26 -25 -26 -27 -28 -29 -30 -30 -31 -31 -31 -31 -31 -31
-17 -17 -17 -18 -18 -19 -19 -20 -20 -21 -22 -22 -23 -23 -24 -25 -25 -25 -26 -26 -28 -29 -30 -30 -31 -31 -31 -31 -31 -31 -31 -31
-17 -18 -18 -18 -19 -19 -20 -21 -22 -22 -23 -22 -24 -24 -25 -25 -26 -26 -28 -29 -30 -31 -31 -31 -31 -31 -31 -31 -31 -31 -31 -31
-18 -18 -18 -18 -20 -20 -22 -23 -23 -22 -23 -24 -24 -25 -26 -26 -27 -29 -29 -30 -31 -31 -31 -31 -31 -31 -31 -31 -31 -31 -31 -31
-18 -18 -19 -20 -21 -23 -23 -23 -23 -24 -24 -25 -26 -26 -27 -28 -29 -30 -30 -31 -31 -31 -31 -31 -31 -31 -31 -31 -31 -31 -31 -31
-19 -20 -22 -22 -23 -23 -23 -24 -24 -25 -26 -27 -27 -28 -29 -30 -30 -31 -31 -31 -31 -31 -31 -31 -31 -31 -32 -32 -32 -32 -32 -32
Height
5814 5811 5809 5806 5803 5799 5795 5792 5788 5784 5779 5775 5771 5766 5762 5757 5752 5747 5742 5738 5733 5729 5726 5722 5717 5712 5709 5704 5701 5698 5696 5693
5809 5807 5804 5801 5797 5793 5790 5786 5782 5776 5771 5767 5762 5757 5753 5748 5743 5738 5734 5729 5724 5719 5714 5710 5705 5702 5697 5692 5689 5686 5683 5678
5805 5802 5798 5795 5791 5788 5783 5779 5774 5769 5764 5759 5754 5749 5744 5738 5733 5728 5722 5717 5712 5706 5700 5695 5690 5686 5682 5678 5674 5671 5668 5663
5799 5797 5793 5789 5785 5780 5774 5770 5765 5760 5755 5750 5745 5739 5733 5728 5722 5716 5711 5705 5699 5693 5687 5682 5677 5672 5669 5665 5660 5655 5653 5649
5793 5789 5785 5781 5776 5771 5766 5762 5757 5752 5746 5740 5734 5729 5724 5718 5712 5705 5698 5691 5685 5678 5672 5667 5662 5656 5651 5647 5642 5636 5631 5630
5785 5781 5776 5771 5767 5762 5758 5753 5747 5741 5736 5730 5724 5719 5712 5704 5698 5690 5682 5676 5668 5661 5655 5648 5642 5636 5631 5626 5622 5616 5610 5606
5777 5773 5768 5763 5758 5753 5748 5742 5736 5730 5723 5718 5712 5705 5697 5689 5681 5674 5667 5659 5652 5644 5638 5630 5624 5617 5610 5604 5599 5593 5588 5582
5767 5763 5758 5754 5748 5742 5736 5730 5723 5717 5711 5704 5697 5689 5681 5673 5666 5659 5652 5644 5635 5627 5618 5610 5602 5595 5587 5581 5575 5569 5564 5558
5757 5752 5747 5742 5736 5730 5725 5718 5712 5705 5697 5690 5682 5674 5666 5658 5649 5640 5632 5623 5614 5605 5596 5588 5580 5572 5563 5556 5550 5543 5536 5529
5749 5744 5739 5733 5727 5721 5715 5708 5700 5693 5685 5676 5668 5659 5649 5639 5629 5619 5610 5600 5590 5581 5573 5564 5556 5548 5539 5530 5521 5514 5506 5498
5739 5734 5728 5722 5716 5709 5702 5695 5687 5678 5669 5659 5648 5638 5628 5618 5608 5599 5589 5579 5570 5560 5550 5541 5530 5520 5510 5500 5492 5482 5475 5471
5730 5725 5719 5712 5704 5696 5688 5680 5671 5661 5650 5640 5631 5621 5610 5600 5588 5578 5568 5557 5547 5537 5525 5514 5503 5492 5482 5473 5466 5461 5458 5455
5720 5714 5706 5698 5689 5682 5673 5663 5654 5645 5635 5624 5614 5603 5591 5579 5567 5556 5545 5533 5522 5512 5498 5487 5477 5468 5461 5455 5450 5447 5444 5441
5709 5702 5694 5685 5676 5667 5657 5648 5638 5628 5616 5605 5594 5582 5570 5558 5546 5535 5522 5510 5496 5484 5474 5466 5458 5452 5447 5442 5437 5433 5429 5426
5696 5689 5681 5672 5663 5652 5642 5631 5620 5608 5596 5585 5574 5562 5550 5538 5524 5512 5499 5486 5474 5464 5456 5449 5443 5438 5433 5428 5422 5418 5414 5411
5686 5678 5668 5658 5647 5635 5624 5612 5601 5591 5580 5566 5554 5543 5530 5516 5501 5487 5474 5465 5456 5449 5443 5436 5429 5423 5418 5414 5409 5404 5400 5396
5672 5662 5652 5641 5629 5617 5605 5595 5585 5573 5560 5547 5534 5522 5508 5493 5479 5468 5458 5450 5443 5436 5429 5422 5415 5409 5404 5398 5393 5388 5384 5380
5657 5646 5634 5622 5610 5600 5590 5578 5566 5555 5542 5529 5515 5502 5488 5475 5463 5454 5445 5439 5431 5424 5416 5409 5401 5393 5387 5381 5375 5370 5366 5362
5640 5627 5614 5604 5594 5584 5573 5561 5548 5536 5523 5509 5496 5484 5471 5461 5451 5443 5435 5428 5420 5411 5403 5394 5385 5375 5369 5362 5357 5352 5348 5344
Wind_Speed
20 23 26 30 32 33 35 36 36 39 41 41 42 45 47 48 49 50 51 50 50 50 51 52 53 55 56 57 57 58 58 57
23 26 30 33 34 36 37 38 39 41 43 45 48 50 52 52 51 52 52 52 53 54 55 56 58 59 59 60 61 62 62 61
27 30 33 35 36 37 39 39 41 44 47 48 50 53 53 51 52 53 54 55 57 58 61 63 63 64 65 65 66 65 63 63
30 33 35 36 37 40 41 41 44 47 50 51 51 51 51 53 56 57 59 61 64 65 67 68 69 69 69 69 69 69 69 69
31 33 36 37 40 42 43 45 49 50 50 50 51 52 54 58 60 62 63 65 66 68 71 73 73 73 74 73 74 76 75 73
33 35 38 41 43 44 45 46 46 48 50 52 53 56 59 62 63 64 71 73 74 76 77 77 76 74 74 74 77 78 79 78
35 38 40 42 43 43 43 45 48 50 52 53 57 62 65 66 68 69 73 76 77 79 78 78 76 76 77 79 81 81 81 80
39 39 40 41 41 43 46 49 51 54 56 60 64 68 69 71 72 74 76 78 79 79 79 79 80 82 84 80 80 83 81 82
39 40 39 43 46 49 52 53 55 59 63 67 68 70 73 75 75 76 77 78 80 81 81 82 83 83 81 86 88 88 89 94
37 40 43 47 51 52 53 56 59 63 66 67 68 70 73 75 77 77 78 81 81 81 80 82 85 84 86 92 93 95 92 83
42 44 48 50 52 55 58 60 63 65 67 69 72 74 77 77 79 80 80 79 80 81 84 85 85 88 94 92 88 74 64 60
43 46 48 52 56 59 62 64 67 69 69 72 76 78 80 80 80 80 80 79 82 85 86 91 94 89 79 71 58 50 49 48
47 50 54 57 60 62 65 68 69 70 73 78 79 80 81 79 79 81 83 84 88 93 93 86 75 68 57 48 47 47 50 51
52 55 57 60 64 67 71 71 70 75 78 84 85 84 81 80 81 81 85 90 92 85 74 66 56 48 46 47 49 49 50 51
57 60 64 68 69 73 74 75 77 79 79 87 90 86 84 84 84 85 86 88 71 63 55 50 49 49 48 48 49 50 51 51
61 64 68 72 76 77 75 74 77 78 87 94 91 88 87 86 86 85 74 65 58 52 51 52 52 49 47 46 47 48 49 49
67 72 76 79 79 77 76 75 76 86 94 93 91 88 88 84 78 69 61 54 51 54 52 50 51 51 50 51 50 51 51 52
72 78 80 80 77 74 76 81 88 90 90 88 86 86 82 73 63 57 51 51 52 51 52 54 55 56 54 54 54 54 54 55
77 78 78 78 73 76 81 86 85 87 84 83 82 78 68 60 52 49 50 51 51 53 55 57 57 57 55 54 53 52 52 51
Wind_Direction
294 294 294 300 307 308 307 307 305 305 307 305 304 305 306 306 305 305 305 304 303 304 303 303 302 301 299 297 295 293 292 292
288 298 304 306 305 303 304 304 302 304 305 303 302 304 303 302 300 300 300 300 299 298 298 297 295 293 292 292 291 290 290 290
303 302 302 299 297 298 298 297 298 299 299 298 297 299 300 297 296 296 296 294 293 293 294 293 292 291 291 291 291 290 289 289
297 293 292 293 293 293 293 293 294 294 295 296 297 296 295 294 296 297 298 297 296 294 293 292 293 293 292 292 292 291 289 289
286 285 289 290 292 292 290 291 293 294 294 295 293 294 295 297 297 296 295 294 293 293 293 294 294 293 292 291 291 290 290 289
288 289 290 289 290 290 291 292 293 293 293 293 294 297 299 299 297 297 298 300 300 300 299 298 297 295 294 292 291 291 290 292
285 285 286 287 289 291 293 294 294 294 296 298 298 297 300 301 301 299 298 299 299 298 297 295 294 293 292 292 290 290 291 291
291 292 292 293 295 296 297 299 300 301 299 299 302 303 303 301 300 300 298 297 297 297 296 294 294 294 294 295 292 293 294 292
297 298 299 301 303 304 304 302 302 302 301 303 304 303 303 302 300 300 301 300 299 297 297 297 299 298 295 295 296 294 293 293
297 300 303 304 303 303 302 301 302 302 302 301 300 300 303 305 305 304 303 302 301 301 301 299 298 295 293 291 291 293 295 290
304 302 303 302 303 302 302 301 300 300 302 304 306 307 307 306 305 305 303 302 301 299 299 296 294 294 299 297 297 295 289 285
301 302 302 302 301 300 301 303 304 307 307 307 307 308 309 308 306 304 304 302 301 300 298 297 299 300 298 295 294 291 286 281
305 305 304 303 303 305 306 306 306 304 306 308 311 312 312 310 307 306 306 303 301 303 301 302 299 295 296 293 290 283 278 282
303 303 304 307 308 308 307 304 304 308 310 314 316 315 313 311 310 304 302 303 304 304 303 299 301 298 296 292 289 286 284 283
304 306 307 308 308 309 308 306 306 309 306 311 316 315 313 312 310 308 306 306 307 305 306 303 302 300 296 293 290 288 286 285
307 308 309 310 311 310 310 310 305 305 307 315 314 313 314 314 313 310 310 308 308 306 306 304 302 299 297 293 290 288 285 284
310 311 311 311 312 312 313 310 305 305 313 312 313 316 317 316 313 311 310 310 309 308 307 305 302 299 297 294 292 289 286 283
311 311 312 314 315 312 307 307 308 309 310 313 316 318 318 315 313 312 310 309 309 308 307 305 303 301 300 297 295 291 288 285
312 313 315 314 313 307 306 307 310 311 314 316 318 320 317 316 314 312 311 311 310 309 309 308 307 305 303 300 298 295 292 288